This is the latest recevied weather packets stored in our database for station/object WD7OO. If no packets are shown the sender has not sent any weather packets the latest 10 day(s).
| Time | Temp. | Humidity | Pressure | Rain* | Wind** | Luminosity | Snow |
|---|---|---|---|---|---|---|---|
| 1777426851 | 11.67° C | 88% | 1014.5 hPa | 0 mm | - | 0 W/m² | - |
| 1777426543 | 11.67° C | 86% | 1014.3 hPa | 0 mm | - | 0 W/m² | - |
| 1777426238 | 11.67° C | 86% | 1014.2 hPa | 0 mm | - | 0 W/m² | - |
| 1777425934 | 11.67° C | 86% | 1014 hPa | 0 mm | - | 0 W/m² | - |
| 1777425629 | 11.67° C | 86% | 1014.1 hPa | 0 mm | - | 0 W/m² | - |
| 1777425325 | 11.67° C | 85% | 1013.8 hPa | 0 mm | - | 0 W/m² | - |
| 1777425022 | 11.67° C | 85% | 1014 hPa | 0 mm | - | 0 W/m² | - |
| 1777424717 | 11.67° C | 84% | 1013.7 hPa | 0 mm | - | 0 W/m² | - |
| 1777424412 | 12.22° C | 84% | 1013.1 hPa | 0 mm | - | 0 W/m² | - |
| 1777424108 | 12.22° C | 81% | 1013.1 hPa | 0 mm | - | 0 W/m² | - |
| 1777423806 | 12.78° C | 80% | 1013.2 hPa | 0 mm | - | 0 W/m² | - |
| 1777423502 | 12.78° C | 77% | 1013.3 hPa | 0 mm | - | 0 W/m² | - |
| 1777423197 | 13.33° C | 77% | 1013 hPa | 0 mm | - | 1 W/m² | - |
| 1777422891 | 13.33° C | 75% | 1013.4 hPa | 0 mm | - | 3 W/m² | - |
| 1777422587 | 13.89° C | 74% | 1013.3 hPa | 0 mm | - | 6 W/m² | - |
| 1777422284 | 13.89° C | 73% | 1013.1 hPa | 0 mm | - | 8 W/m² | - |
| 1777421983 | 13.89° C | 74% | 1013 hPa | 0 mm | - | 11 W/m² | - |
| 1777421678 | 13.89° C | 73% | 1012.8 hPa | 0 mm | - | 16 W/m² | - |
| 1777421372 | 14.44° C | 72% | 1012.8 hPa | 0 mm | - | 20 W/m² | - |
| 1777421070 | 14.44° C | 73% | 1012.9 hPa | 0 mm | - | 26 W/m² | - |
| 1777420766 | 15° C | 71% | 1012.6 hPa | 0 mm | - | 32 W/m² | - |
| 1777420462 | 15° C | 72% | 1013 hPa | 0 mm | - | 31 W/m² | - |
| 1777420159 | 15° C | 69% | 1013.3 hPa | 0 mm | - | 33 W/m² | - |
| 1777419849 | 15.56° C | 69% | 1013.2 hPa | 0 mm | - | 45 W/m² | - |
| 1777419547 | 16.11° C | 70% | 1013.4 hPa | 0 mm | - | 72 W/m² | - |
* Rain latest hour (hover to see other rain measurements)
** Current wind speed in m/s (hover to see current wind gust speed)